Theta_e
322 322 322 322 321 321 321 321 321 321 321 321 321 322 321 321 321 321 320 320 320 320 321 321 321 321 322 322 322 323 322 325 325 322 319 319 340 342 349 358 363 365 366 356 355 350 347 347 345 349 351 351 350 348 349 353 348 344 332 330 323 327 325 331 330 332 334 333 336 340 341 338 334 341 345 350 345 346 344 343 348 353 353 354 354 354 353 349
321 321 321 321 321 321 321 321 321 320 320 320 321 321 321 321 321 320 320 320 320 320 321 321 321 321 322 322 323 323 323 325 322 321 321 338 343 343 350 362 365 365 364 351 350 346 345 343 346 349 348 345 351 346 350 345 350 340 335 330 323 329 331 338 337 338 337 335 337 341 343 340 338 342 344 341 341 342 340 343 346 347 351 354 353 350 350 346
321 321 321 321 321 321 321 321 320 320 320 320 320 320 320 320 320 320 320 320 320 320 321 320 321 321 322 322 324 322 324 323 323 317 320 343 347 345 355 363 364 366 353 348 350 347 346 345 347 347 348 344 346 341 346 343 347 342 337 325 327 334 336 340 341 339 341 341 341 339 342 341 341 343 347 340 337 340 336 335 338 344 342 348 349 349 348 346
321 320 320 321 321 321 320 320 320 320 320 319 320 319 319 320 320 320 320 320 320 320 320 321 321 321 322 322 323 325 324 322 314 319 333 352 348 348 360 364 365 363 351 348 349 348 348 348 348 347 346 343 343 344 341 342 340 340 337 327 330 337 334 338 340 341 342 342 341 341 342 342 343 345 344 340 335 336 340 341 339 340 342 345 347 347 346 345
320 320 320 320 320 320 320 320 320 320 320 319 319 319 319 319 319 319 319 319 320 320 321 320 321 321 322 323 322 325 323 314 313 326 344 348 349 352 362 365 364 356 350 347 347 346 349 347 346 346 345 335 342 342 338 342 343 340 334 334 335 337 334 339 341 343 341 343 341 341 340 341 348 346 344 339 332 331 338 345 347 348 348 346 345 346 345 345
320 320 320 320 320 320 320 319 319 320 319 319 319 318 318 318 318 319 319 319 319 320 321 321 321 322 322 323 323 325 319 302 319 326 358 350 348 356 364 367 365 354 349 345 343 345 347 346 346 341 340 339 335 334 337 340 344 335 336 336 338 339 335 340 343 344 341 341 340 341 345 346 342 342 345 343 335 341 345 349 350 351 351 349 347 346 345 345
320 320 320 320 320 319 319 319 319 319 319 319 318 318 318 318 318 318 318 319 319 320 321 321 321 322 322 322 326 321 318 316 325 340 354 349 349 359 367 368 367 353 348 341 343 343 345 343 343 339 340 338 337 335 337 335 343 338 330 337 336 340 338 341 340 346 340 341 341 345 347 343 343 334 343 341 345 347 351 351 353 354 353 350 347 346 344 344
320 320 320 320 319 319 318 319 319 319 319 318 318 318 318 318 318 318 318 319 319 320 321 320 320 322 322 325 323 320 313 313 329 350 350 350 345 353 367 361 357 351 345 340 344 343 345 342 340 340 339 334 335 335 338 336 339 336 332 333 333 336 339 341 342 341 342 342 346 345 341 343 344 344 343 343 348 349 351 354 354 353 351 349 348 346 346 345
320 320 319 319 318 318 318 318 319 319 318 318 318 317 317 317 318 318 319 319 320 320 321 320 321 322 320 322 323 313 311 327 343 345 347 337 333 351 357 353 354 347 343 343 346 346 344 340 342 340 335 333 338 333 336 332 335 336 331 332 333 333 337 338 340 342 342 345 345 341 341 343 345 348 342 347 349 350 353 352 352 351 348 348 349 347 346 346
319 318 318 318 318 318 318 318 318 318 318 317 317 317 317 317 318 318 319 319 320 320 321 321 321 322 323 323 320 309 321 336 344 346 337 339 337 347 349 351 350 346 340 340 344 346 343 342 340 340 338 335 337 333 334 332 329 331 330 331 331 334 337 340 340 343 344 344 344 341 339 341 345 343 335 347 350 351 351 351 351 349 347 348 349 349 348 347
318 318 317 317 317 317 317 318 318 317 317 317 317 316 317 317 318 318 319 320 320 321 321 321 322 322 325 322 315 310 326 337 345 342 342 344 347 345 349 350 348 342 339 338 340 346 348 339 338 339 336 334 333 333 331 332 333 330 331 329 332 337 338 341 342 343 345 341 345 344 339 341 343 340 339 345 349 350 348 349 348 348 348 347 348 349 350 350
317 317 317 316 316 316 317 317 317 317 317 317 317 317 317 317 318 318 319 319 321 321 320 320 321 325 324 323 315 315 328 334 343 343 346 349 351 353 355 349 345 341 337 335 338 344 345 344 336 332 328 334 328 329 333 332 329 329 328 326 330 334 336 337 340 342 346 342 345 346 339 336 337 338 346 347 347 349 346 345 347 348 349 348 348 348 349 348
317 316 316 316 316 316 316 317 317 317 317 317 317 317 317 317 318 318 319 320 320 320 320 321 322 326 322 313 314 324 331 340 340 345 349 352 355 357 354 348 344 342 338 335 334 338 340 339 336 329 328 325 325 321 329 330 329 329 331 329 329 331 331 338 343 342 344 343 345 344 322 327 335 342 344 347 347 348 346 344 346 347 347 348 348 347 348 349
316 316 315 315 315 316 316 316 317 317 317 316 316 316 317 317 318 318 319 320 321 321 322 322 325 325 323 312 318 332 331 341 338 337 340 343 340 345 350 349 346 340 333 328 326 328 328 331 327 325 327 323 323 334 330 328 330 324 329 328 324 320 321 333 338 338 339 341 344 345 320 328 336 343 345 347 348 345 340 342 344 343 346 347 347 348 347 348
316 315 315 315 315 316 316 316 316 316 316 315 316 316 316 317 318 319 320 322 320 322 321 323 326 324 315 313 327 337 344 339 328 328 332 331 332 334 339 340 336 337 335 328 325 327 326 327 325 323 325 332 331 327 324 325 327 327 322 320 323 320 322 331 337 337 327 339 343 340 326 328 333 341 345 346 346 345 341 340 341 344 344 346 346 347 347 348
315 315 315 315 315 315 315 316 316 316 315 315 315 316 316 317 319 321 322 323 322 320 325 324 327 324 318 310 330 344 337 330 326 329 331 330 326 323 333 331 330 330 328 327 327 325 324 322 320 323 325 329 325 322 321 322 323 325 320 318 318 319 320 329 328 334 332 336 341 338 323 329 337 342 343 346 345 344 343 342 342 343 345 346 347 347 347 349
315 315 315 315 315 315 315 315 316 315 315 315 315 316 318 319 320 323 323 323 324 325 326 324 325 323 312 322 329 328 323 328 333 329 326 329 325 329 327 326 322 322 324 325 323 321 319 318 322 326 328 324 324 321 318 317 318 320 322 318 319 317 318 317 329 332 331 330 331 338 330 331 338 340 342 344 344 343 342 342 343 343 344 346 346 346 346 348
316 315 315 315 315 315 315 316 315 315 315 315 315 317 319 321 322 323 321 324 326 325 325 326 323 319 312 320 315 319 325 325 331 330 325 326 327 325 323 320 321 320 319 316 318 315 317 317 323 321 323 323 321 319 315 313 315 315 316 316 316 318 318 316 316 318 323 329 325 332 332 330 338 340 340 343 344 343 342 342 343 343 343 344 344 343 344 346
315 315 316 315 315 315 315 316 315 315 314 314 316 318 321 321 325 327 323 322 318 316 312 313 313 305 306 314 321 323 324 328 333 328 322 323 325 324 322 322 319 316 311 310 312 315 319 319 324 320 316 318 318 319 318 317 317 316 316 316 316 314 316 315 317 320 322 320 322 327 326 327 337 338 339 342 343 341 342 344 343 344 344 344 344 342 343 344
315 315 315 315 315 315 315 315 315 314 314 314 320 324 324 321 321 319 323 321 317 316 314 314 317 314 315 319 320 324 330 331 324 326 324 325 323 320 319 318 316 314 311 310 313 318 323 316 314 313 317 319 318 319 319 320 319 318 318 317 315 314 316 318 317 321 325 321 323 322 326 328 333 338 339 341 342 340 341 342 342 342 342 344 344 343 344 344
315 315 315 314 315 315 315 314 315 314 313 315 317 318 315 316 312 311 314 319 321 320 317 317 316 316 316 319 322 323 320 320 324 323 323 327 322 318 314 315 310 307 311 316 317 323 323 316 315 318 321 320 319 320 320 319 318 317 316 315 314 315 314 316 316 323 328 318 321 330 327 330 335 338 339 341 340 338 338 340 342 342 343 344 343 344 344 345
315 315 315 315 315 315 315 314 314 313 312 316 317 318 317 319 320 321 317 312 317 318 319 318 320 317 321 321 323 324 322 318 319 322 326 324 317 312 314 313 307 306 313 316 319 317 316 314 318 321 322 321 320 319 319 317 316 316 314 314 312 315 316 316 320 325 325 321 319 324 324 329 336 338 339 339 340 340 341 341 341 341 342 343 342 344 344 343
315 315 314 315 315 314 314 314 313 312 316 318 320 319 318 322 324 326 321 316 314 318 318 317 315 316 318 322 323 324 317 316 315 320 320 321 312 313 314 312 309 310 314 315 313 314 312 316 320 323 321 318 317 317 315 315 315 315 314 313 312 315 312 311 320 320 320 318 318 323 323 330 337 338 339 340 340 342 345 344 343 342 341 342 343 343 342 342
314 314 314 314 314 314 313 313 312 315 317 320 318 320 325 326 326 325 318 314 312 316 317 318 319 319 318 317 323 322 317 317 318 316 322 318 309 318 313 311 309 311 312 315 316 315 314 318 321 320 318 316 314 315 314 314 313 315 314 313 312 311 312 312 314 317 319 323 326 328 325 328 334 331 334 338 341 343 344 343 342 342 345 346 346 345 345 344
314 314 314 314 314 314 312 311 315 319 322 319 319 324 326 326 327 325 317 315 312 313 321 320 322 321 322 327 326 319 318 319 318 322 321 317 313 313 311 317 314 309 311 316 317 316 317 321 321 316 317 317 316 314 314 312 311 313 315 312 312 312 312 313 315 315 317 318 328 319 310 314 330 332 333 336 337 336 341 341 340 340 341 343 344 344 345 347
313 314 314 314 314 313 310 314 321 321 317 320 324 326 326 326 327 327 317 312 303 311 316 310 322 316 327 319 322 321 320 313 321 323 321 318 322 316 318 313 313 308 313 316 316 316 317 322 320 317 317 316 314 313 313 312 311 311 312 313 313 312 313 313 314 315 312 311 322 323 311 308 326 329 333 335 334 334 339 338 338 340 340 340 341 344 343 344
313 314 314 314 313 312 314 319 319 318 317 321 325 326 325 326 329 324 313 305 301 310 309 316 318 317 322 321 321 321 306 311 322 323 320 321 316 326 312 312 312 316 320 319 315 311 317 318 317 317 316 314 313 312 314 312 311 310 314 314 313 312 312 313 314 315 315 318 319 322 319 311 311 326 334 335 333 334 335 337 338 339 340 339 341 342 344 345
313 313 314 314 313 312 313 315 317 316 319 322 325 325 326 328 328 324 313 293 295 314 309 314 315 323 320 322 323 317 317 319 312 317 322 320 325 319 316 314 310 309 316 315 304 315 315 314 314 314 314 313 311 313 313 314 311 311 314 314 312 313 313 315 316 315 317 314 310 316 321 313 312 323 333 333 330 333 334 335 337 339 340 340 340 341 343 345
313 313 314 313 312 312 313 314 316 316 323 325 323 325 326 329 323 315 308 295 308 310 320 311 322 318 317 321 318 317 317 319 313 317 323 323 326 322 311 317 315 314 316 314 307 312 314 314 314 314 312 310 313 315 315 314 310 315 315 316 315 315 315 317 316 315 316 312 308 312 316 309 311 319 328 333 331 330 334 337 338 340 340 341 340 341 343 345
313 312 313 312 312 314 313 314 313 321 324 323 324 325 325 323 317 309 300 294 310 303 313 312 313 312 317 313 315 316 314 316 318 319 320 318 321 324 320 325 318 315 313 315 312 313 315 320 320 314 312 314 315 316 316 315 315 317 315 313 314 315 316 318 317 316 312 307 309 313 314 313 307 315 318 321 321 325 329 335 340 341 342 342 342 343 343 343
312 311 311 311 312 319 318 315 320 323 323 325 325 324 323 319 310 304 295 303 311 308 313 311 309 316 312 311 310 315 313 315 316 316 314 319 317 319 318 316 320 315 313 313 311 312 313 314 313 315 317 316 316 313 317 317 316 314 312 312 312 312 315 314 313 315 306 304 311 314 313 315 306 312 319 325 327 326 329 331 335 340 342 343 344 344 344 345
311 310 311 311 315 317 314 318 321 323 325 324 323 322 317 307 311 302 299 311 301 305 307 308 311 312 312 313 312 312 310 312 316 314 312 313 313 312 312 309 311 305 304 307 306 311 308 309 313 314 320 315 313 312 313 315 315 313 312 312 306 305 308 302 308 303 304 303 312 314 316 314 314 315 319 322 325 328 331 332 334 338 342 344 345 345 346 345
310 310 310 311 312 313 315 320 323 323 323 322 323 321 311 306 299 305 302 306 301 308 307 313 308 311 312 310 309 312 313 309 315 314 315 314 313 313 316 314 314 311 303 307 306 305 305 310 311 313 315 317 314 308 310 308 312 312 310 309 305 301 301 298 302 306 306 309 314 313 318 309 314 317 323 323 326 330 332 334 337 339 342 345 346 347 347 347
308 309 312 314 314 316 320 324 324 323 321 325 322 314 310 303 299 310 304 306 305 310 311 309 309 310 311 307 309 311 307 311 312 313 315 312 312 311 313 315 315 311 310 308 302 303 299 300 307 311 308 316 314 313 313 312 312 312 314 311 308 307 302 299 302 300 303 307 310 316 309 309 309 315 322 325 329 332 333 335 340 342 344 347 348 348 348 348
307 310 317 317 315 317 318 321 322 322 321 322 316 311 304 303 307 305 304 306 307 309 308 311 307 306 306 308 310 311 312 307 312 312 311 311 308 310 311 311 315 314 312 304 306 306 303 305 310 315 315 316 313 316 317 313 311 313 313 314 308 306 312 302 308 307 307 306 306 311 309 314 314 321 325 328 327 331 333 335 338 341 343 346 347 347 348 348
308 319 319 320 319 322 321 320 321 320 321 318 311 308 306 309 305 312 307 312 309 307 307 309 308 304 304 306 309 309 312 307 310 310 310 310 311 309 313 314 313 314 311 305 309 301 305 303 312 313 314 314 314 316 315 315 304 311 311 306 310 316 311 307 309 310 310 308 305 313 311 313 319 320 323 327 326 328 331 332 336 338 341 345 345 347 348 348
323 321 323 325 325 325 323 322 321 321 322 317 310 307 311 312 315 314 315 312 310 311 307 302 303 304 303 304 306 307 309 310 309 309 306 311 308 310 311 312 317 315 315 312 307 311 304 304 311 311 309 314 316 316 316 316 316 312 306 310 316 317 315 311 305 309 306 303 305 309 307 309 310 307 321 321 322 324 327 330 335 339 340 342 343 346 349 349
325 327 327 324 324 325 324 323 321 322 320 314 308 310 315 311 315 315 317 315 313 311 307 306 305 308 304 306 305 307 309 306 307 308 307 309 306 315 311 311 315 315 316 317 310 310 310 303 308 312 311 313 315 315 313 316 317 312 312 317 308 305 304 310 308 302 302 301 304 306 308 309 312 312 316 316 318 321 326 330 333 334 336 338 341 345 349 350
325 329 319 323 325 324 324 324 323 323 316 310 310 308 313 314 317 315 316 317 316 310 307 308 306 307 309 306 308 309 308 304 308 307 305 308 304 312 312 313 312 315 316 316 311 312 311 303 305 312 311 313 313 313 305 310 315 316 317 313 316 312 310 308 309 311 310 303 302 303 306 305 313 314 316 317 320 322 324 326 327 331 333 337 340 342 347 349
324 323 316 325 324 326 326 324 323 319 313 308 311 311 315 312 315 317 318 317 314 312 309 308 310 307 308 309 309 307 309 308 308 308 307 310 308 312 312 315 313 314 316 317 313 314 309 311 302 308 313 312 307 310 307 310 309 310 310 309 311 311 316 314 314 310 307 305 305 303 301 307 313 318 318 319 322 323 325 326 329 330 333 336 340 342 346 350
327 321 317 326 326 327 326 323 316 312 311 314 314 312 313 312 315 317 318 318 317 319 315 310 310 307 308 308 307 311 308 308 308 307 308 308 308 306 313 314 315 313 315 315 313 314 309 309 304 307 308 307 309 313 313 312 312 311 310 309 311 309 308 305 305 313 310 307 305 304 301 310 315 323 324 323 324 327 328 328 329 331 333 338 341 344 348 350
322 315 316 326 326 326 322 314 314 316 313 312 313 315 314 319 316 316 317 319 317 316 318 314 312 311 310 309 310 309 309 308 308 308 309 307 310 310 312 316 316 316 313 310 311 315 314 312 308 305 307 308 311 313 316 316 314 314 313 311 313 313 312 307 299 307 310 310 311 309 304 309 320 324 325 325 328 329 330 330 331 334 335 339 341 344 351 352
322 319 325 326 327 325 319 313 317 315 313 316 318 317 318 316 315 316 315 316 314 317 316 313 312 310 311 311 310 309 310 308 308 307 309 309 310 312 314 314 316 316 314 313 313 315 315 308 305 306 310 312 313 315 316 315 314 312 313 314 313 310 311 310 309 312 309 311 307 307 304 309 316 329 329 328 331 332 334 333 333 334 337 342 345 351 353 353
322 319 319 326 328 325 316 311 312 315 316 317 318 316 318 316 316 315 314 314 314 314 314 313 314 314 312 313 311 308 311 306 309 309 308 310 309 315 314 313 316 314 313 313 310 315 307 310 308 304 304 306 308 311 311 314 314 312 311 313 314 314 313 313 313 314 308 310 308 305 300 306 316 328 330 331 331 332 332 333 334 334 337 340 347 353 355 355
323 323 323 322 325 322 314 316 314 314 315 315 316 314 315 316 317 317 316 314 316 316 315 313 314 315 312 313 311 312 312 311 309 310 310 311 311 315 315 314 315 315 316 317 327 317 310 310 308 301 299 296 296 298 300 305 308 311 312 312 313 312 311 310 306 309 303 310 309 305 304 313 322 328 327 329 329 332 333 333 335 337 339 344 347 351 355 354
320 316 319 320 321 320 320 321 317 315 315 317 316 315 316 313 316 317 317 316 317 316 317 315 315 315 312 311 310 309 309 313 312 309 311 311 313 315 313 313 314 315 320 323 321 317 310 313 311 308 306 303 305 308 310 312 310 307 309 311 312 312 313 312 311 307 304 309 308 311 311 313 314 318 324 326 327 328 330 333 334 334 338 344 350 351 352 354
322 316 317 315 320 319 318 318 317 318 316 318 315 314 314 314 315 316 317 315 317 317 317 316 313 311 310 312 310 310 312 311 314 313 311 311 313 315 313 313 313 317 325 318 320 316 313 308 309 310 309 309 309 309 311 312 308 309 309 311 314 313 313 311 307 306 314 306 303 313 317 311 314 320 323 326 328 330 331 332 332 335 338 341 344 351 349 353
319 320 320 321 316 316 318 317 319 318 318 319 315 318 314 314 315 313 317 318 319 319 315 315 316 315 314 313 313 310 312 312 313 311 313 313 313 314 314 315 312 318 318 316 318 314 311 306 310 310 308 310 311 311 312 311 311 312 313 313 313 314 314 310 309 313 312 307 306 314 317 313 317 322 326 331 331 329 330 333 336 338 340 346 347 347 347 350
323 322 322 322 318 319 319 319 320 318 318 317 318 316 314 314 313 314 314 316 317 316 318 312 313 314 315 317 315 312 313 308 309 314 314 313 313 312 311 314 318 324 320 317 316 319 314 307 310 310 309 309 310 310 312 311 312 312 313 314 315 314 314 313 311 312 311 311 312 314 320 318 322 325 329 332 334 332 334 336 336 337 339 345 345 344 344 348
320 320 317 321 320 320 321 321 319 318 316 318 317 314 316 314 313 315 316 316 313 314 318 314 314 316 316 316 317 313 314 316 315 312 314 316 313 315 312 313 312 316 317 314 314 317 312 312 314 311 308 307 309 311 312 312 312 311 313 315 315 315 316 317 313 312 314 311 312 311 317 319 327 333 333 336 337 334 334 332 333 337 338 341 344 344 346 348
319 323 321 320 317 319 322 320 318 317 316 317 317 315 316 315 314 316 315 318 316 314 316 314 316 316 317 316 315 314 316 316 316 315 316 315 312 315 314 313 316 312 314 313 314 317 313 310 313 311 306 305 308 309 310 311 312 311 312 315 316 314 312 317 318 319 315 313 312 312 317 319 328 334 335 335 334 334 334 334 334 336 337 339 339 341 341 344
322 324 323 320 318 320 318 319 318 318 313 316 315 315 315 314 316 316 314 317 318 318 317 317 317 317 316 316 314 315 317 317 318 318 319 318 318 317 317 316 316 315 313 313 316 313 313 310 309 307 304 304 309 309 309 309 309 306 309 315 318 319 320 322 323 323 320 319 313 313 317 328 331 335 330 331 333 336 338 338 339 341 343 343 343 342 343 346
Wind_Speed
14 14 14 14 15 15 16 16 17 17 17 17 18 18 18 17 17 17 16 15 15 14 13 12 11 11 12 12 12 11 13 9 7 7 8 7 10 9 7 14 18 18 13 13 10 10 9 6 4 2 4 5 1 2 3 3 3 4 3 3 7 7 9 7 8 8 4 5 5 1 3 1 3 3 3 4 5 4 6 4 4 3 3 11 12 14 15 17
14 14 14 15 15 15 16 16 17 18 18 17 18 18 18 18 17 17 16 15 15 14 13 12 11 11 11 11 12 10 13 8 7 9 14 8 10 7 11 17 18 16 17 13 12 11 9 7 4 4 4 2 1 1 4 1 2 5 3 2 8 7 7 4 5 4 4 6 3 3 2 1 4 4 4 4 6 6 5 3 4 6 8 11 13 15 15 17
14 14 14 15 15 16 16 16 17 18 18 18 18 17 17 17 17 17 16 16 14 13 13 12 11 11 11 11 9 11 11 7 6 11 6 17 13 9 15 18 19 18 18 12 11 8 6 4 5 5 3 3 1 2 3 3 4 3 6 5 8 7 6 4 3 2 1 2 3 2 4 1 6 3 4 4 6 5 5 5 5 7 11 13 15 15 16 16
14 15 15 15 15 16 16 17 18 18 18 18 18 18 17 17 17 16 16 15 14 13 12 12 11 10 10 11 9 11 8 7 6 6 9 5 14 13 16 18 18 20 14 8 8 7 3 4 5 5 3 3 1 4 4 3 5 3 4 6 7 7 7 6 3 2 1 1 2 2 4 5 6 4 5 4 5 5 4 5 7 8 11 13 14 16 15 16
15 15 15 16 16 16 17 17 18 18 18 18 18 18 17 17 17 16 16 15 14 13 12 11 11 11 10 10 13 8 6 7 6 5 9 9 13 15 18 19 19 17 11 6 7 6 6 5 5 5 5 1 0 3 2 1 2 6 3 5 6 6 6 6 5 0 2 3 2 3 4 6 7 6 6 8 6 5 5 7 7 6 11 15 15 16 15 16
15 15 15 16 16 16 17 18 18 18 18 19 18 18 18 18 17 16 15 14 13 12 12 11 11 10 11 7 11 6 5 1 4 5 7 10 14 14 18 18 18 15 9 9 9 8 7 5 5 4 2 1 3 3 4 4 2 4 2 2 5 6 8 7 6 2 3 4 4 4 3 8 9 7 7 8 4 2 5 5 7 7 10 13 14 15 15 15
15 15 15 16 17 17 18 18 18 19 18 18 18 18 18 17 17 16 15 14 13 12 12 11 9 11 10 12 7 5 7 3 2 8 8 12 13 15 18 17 16 13 11 10 9 9 9 6 7 1 2 2 2 4 4 7 2 5 5 8 8 8 9 8 8 4 5 3 4 2 5 7 8 7 9 10 8 5 5 9 7 8 10 12 15 15 14 14
15 16 16 16 17 17 18 18 19 19 18 18 17 18 18 17 16 16 14 13 13 12 11 10 8 10 9 8 5 5 6 2 8 7 10 12 14 15 18 15 15 12 12 11 10 9 8 7 5 0 2 4 4 6 6 10 4 4 5 9 11 9 8 8 6 5 4 4 1 4 6 4 5 3 8 8 7 5 8 9 9 10 11 12 13 14 14 13
15 15 16 16 17 18 18 18 18 19 18 17 17 18 18 17 16 16 14 13 12 11 10 8 8 9 4 6 6 5 5 8 7 2 12 14 15 17 18 13 14 12 11 9 9 7 6 3 3 2 3 5 2 6 6 9 4 2 9 12 12 11 10 8 5 4 5 3 4 6 4 4 3 5 4 7 8 7 9 11 11 12 13 13 13 13 13 13
15 16 16 16 17 17 18 18 18 19 18 17 18 18 17 17 17 15 14 13 12 11 9 7 8 7 8 5 5 6 6 6 4 4 10 13 16 17 16 11 14 13 11 9 8 7 6 1 4 2 5 5 3 5 8 7 6 10 12 11 12 10 7 4 3 3 5 3 6 5 4 5 4 3 5 5 10 9 11 12 12 13 13 13 12 11 11 12
15 16 16 17 17 17 18 18 18 19 19 18 18 18 17 18 17 16 14 12 11 9 9 8 6 10 6 6 6 2 4 4 3 6 10 13 16 15 12 10 13 11 8 7 7 6 4 2 2 3 5 3 9 6 8 3 8 12 11 12 9 1 1 2 4 5 5 4 6 4 4 4 4 3 2 9 10 11 12 13 13 13 13 12 13 12 10 11
16 16 16 17 17 17 18 18 18 19 18 17 18 18 18 18 17 15 13 11 10 7 4 5 7 5 6 6 7 4 5 5 2 6 9 12 11 9 6 10 9 7 7 6 5 5 2 3 4 6 5 7 5 10 3 7 12 11 9 8 2 6 2 5 3 5 5 3 6 3 5 5 6 3 6 9 10 11 12 13 13 12 12 13 12 11 11 11
16 16 17 17 17 18 18 18 18 19 19 19 19 19 19 18 16 14 11 9 4 5 3 4 8 4 5 7 2 7 3 3 6 8 9 7 7 6 6 8 5 3 2 3 3 2 3 5 6 8 6 7 7 5 9 15 12 11 6 6 5 7 4 5 5 5 4 4 6 5 1 2 8 5 6 9 11 11 11 13 13 11 11 12 12 11 11 10
17 16 17 17 18 18 19 19 19 18 19 19 19 20 19 17 15 12 9 8 5 5 5 4 6 5 5 1 5 4 0 4 8 9 9 8 9 8 7 6 5 4 1 2 2 1 4 4 7 9 8 9 6 7 12 9 6 5 3 6 3 4 2 5 2 6 3 4 6 7 1 4 7 7 7 8 10 12 12 11 12 12 11 11 12 12 11 11
16 17 17 18 18 19 19 19 19 19 19 19 20 20 19 16 12 11 7 7 7 5 6 7 5 5 6 4 4 5 2 5 8 9 9 11 9 9 8 6 6 5 3 1 1 1 0 2 5 7 5 1 7 10 8 5 2 3 6 3 3 2 7 7 3 2 4 5 7 4 3 3 6 8 7 8 9 11 10 11 12 12 12 12 11 12 11 11
17 16 16 17 18 19 19 18 18 19 18 19 20 21 17 12 10 6 4 5 3 4 5 5 5 5 7 5 5 5 6 7 7 9 6 6 8 7 9 8 5 4 4 5 2 2 3 4 7 6 7 8 9 5 7 6 5 2 4 2 3 3 3 7 2 5 2 5 7 7 5 1 5 7 8 8 10 11 9 10 12 12 13 13 12 11 10 10
15 13 13 16 17 19 18 16 17 19 19 19 20 17 12 9 8 6 1 6 5 5 4 3 1 2 3 4 4 6 7 5 6 8 6 3 4 8 9 9 6 6 5 3 4 3 4 7 2 7 7 7 4 6 6 5 4 2 4 4 3 5 5 3 8 1 2 4 4 8 6 4 5 9 8 9 10 11 9 10 11 11 11 12 11 10 11 10
14 14 14 13 16 18 18 16 17 19 19 21 20 15 10 6 5 5 5 6 2 3 4 3 5 4 3 5 6 7 6 7 6 7 7 5 5 8 7 6 6 7 6 6 6 7 6 6 4 5 2 5 4 4 5 1 6 5 6 5 4 6 3 4 4 4 3 4 4 4 6 3 6 8 9 10 11 11 10 9 11 12 12 12 11 10 12 11
16 16 14 13 14 18 18 17 18 18 19 21 20 14 10 7 6 5 3 4 4 5 5 6 5 4 4 10 7 6 4 7 7 9 9 8 7 6 4 2 6 9 8 8 7 9 6 6 3 6 6 6 2 3 5 6 6 7 8 7 8 7 4 6 5 3 4 5 4 4 4 1 7 8 8 10 10 11 10 9 9 10 11 12 12 12 11 11
16 15 13 12 13 17 17 16 17 17 16 14 6 4 4 5 5 4 6 6 8 7 6 2 3 0 4 6 7 7 7 9 7 5 9 7 8 8 7 7 8 8 6 8 9 10 5 8 7 7 6 3 3 3 6 6 7 7 7 7 7 7 5 2 3 4 3 7 2 3 4 4 4 8 9 9 10 10 10 11 10 11 11 12 12 13 12 12
16 14 13 12 12 17 14 13 13 16 16 9 8 5 3 5 6 3 1 6 6 5 5 4 4 5 3 3 4 11 8 6 2 8 8 7 7 10 8 9 9 9 9 7 4 7 6 7 7 7 3 1 4 5 5 7 6 7 7 7 6 5 4 4 4 3 1 6 2 1 5 3 4 7 8 9 11 12 12 11 11 12 12 12 14 14 13 12
16 15 13 12 14 16 16 14 13 16 14 6 5 6 4 4 5 3 5 2 6 3 5 5 2 5 3 5 1 1 5 8 8 9 7 9 9 11 10 10 10 9 9 6 5 6 8 9 4 2 2 3 4 6 6 8 8 7 6 5 6 2 4 1 1 1 2 6 4 4 8 2 4 6 7 8 10 9 10 11 11 12 12 12 14 14 13 12
18 16 14 13 13 13 15 16 14 14 4 5 5 6 2 4 2 3 5 6 3 5 4 5 6 7 5 2 4 6 8 9 9 9 9 9 9 9 9 9 10 8 8 11 9 7 7 9 7 4 1 4 6 5 5 7 7 6 5 5 4 5 6 0 6 1 4 5 6 8 9 3 4 3 5 6 8 8 9 10 9 9 12 13 14 14 13 14
18 17 16 16 15 14 13 14 15 7 6 6 8 6 3 3 4 5 6 4 1 6 4 4 5 3 6 5 8 10 9 7 6 11 10 8 9 5 8 10 10 7 9 11 11 8 5 8 7 2 2 4 5 4 6 6 5 4 6 5 5 5 6 5 6 8 8 3 4 8 8 5 5 6 6 6 7 8 8 10 10 10 10 12 12 13 14 14
18 18 16 17 16 14 14 14 6 4 1 5 8 6 3 4 4 5 6 3 4 4 1 3 3 5 4 3 9 9 6 4 6 10 11 11 8 7 6 4 6 9 9 9 9 8 7 5 3 4 2 4 6 6 4 5 6 5 4 5 6 7 7 6 6 7 4 3 3 7 6 1 5 5 4 7 7 9 9 11 12 11 12 12 13 14 15 15
19 18 17 15 14 13 14 6 4 1 4 4 3 4 1 5 3 4 5 5 6 6 5 7 4 6 4 8 8 6 7 6 5 8 10 8 7 5 5 7 6 6 9 5 8 6 6 4 7 7 7 6 7 7 4 3 5 6 6 4 5 7 7 6 6 4 4 4 4 3 6 5 5 3 6 7 7 9 10 11 11 12 12 12 12 12 13 15
19 18 17 16 13 11 7 2 4 5 5 5 3 1 3 4 0 6 5 4 5 7 6 6 5 6 4 9 9 8 11 9 5 9 10 8 9 3 8 5 6 4 1 4 4 8 10 8 7 8 7 8 6 7 4 4 6 3 8 5 7 8 7 6 6 4 4 3 5 4 4 6 2 5 4 6 7 8 10 12 12 12 13 13 13 13 13 14
19 17 17 15 11 4 6 8 7 5 3 5 3 3 5 3 3 5 5 6 4 5 6 7 5 2 3 9 7 6 10 16 9 9 9 11 8 8 9 4 8 7 7 6 9 7 4 7 10 9 9 7 7 3 2 5 7 7 7 6 8 8 8 8 6 4 2 5 4 2 1 6 2 5 4 4 6 8 11 12 14 13 13 14 15 15 15 15
16 16 15 14 9 9 7 6 5 5 5 3 4 5 3 2 6 5 5 3 4 3 5 6 1 5 5 8 7 2 6 6 5 13 7 8 7 5 8 5 6 2 6 9 9 6 5 6 2 7 6 7 3 2 4 5 7 2 5 10 10 8 7 6 6 5 1 5 5 1 3 5 3 4 5 5 4 5 7 11 14 15 15 14 14 15 16 15
15 13 12 9 9 6 5 6 9 7 4 5 6 5 2 6 5 6 6 3 7 7 6 4 7 10 10 10 8 5 5 6 4 9 10 8 10 8 3 6 3 6 6 7 10 10 5 1 4 5 6 6 6 7 6 6 9 10 12 11 8 7 5 3 5 5 5 7 3 1 2 6 5 1 1 2 2 4 3 4 9 13 15 15 14 15 15 15
15 12 9 7 5 1 3 5 5 7 6 5 6 6 6 5 5 5 6 6 7 7 5 9 6 9 12 11 8 7 1 6 8 11 10 8 10 8 2 7 3 5 5 5 8 10 10 9 9 6 10 8 8 9 9 8 8 8 6 6 6 6 6 7 6 3 6 6 1 1 3 3 5 3 3 4 3 1 1 2 5 12 15 15 14 13 14 15
15 11 9 7 6 4 7 4 4 1 2 6 6 6 6 6 5 6 3 3 6 8 9 10 7 11 11 9 5 10 7 6 7 10 10 9 9 8 9 6 7 7 7 7 7 8 10 11 8 9 6 9 8 8 7 7 5 6 7 7 7 4 4 7 6 7 6 4 2 1 1 4 3 2 4 4 3 3 1 2 2 7 13 14 14 14 13 14
14 10 10 10 8 9 11 8 5 4 7 7 5 6 7 5 6 4 7 8 3 8 7 8 9 11 11 9 7 9 5 6 8 10 9 11 8 9 9 9 4 8 4 7 5 5 7 10 12 10 8 10 10 9 6 8 6 7 8 5 5 6 6 5 4 2 4 5 1 1 0 4 1 3 3 6 6 5 3 2 2 4 9 14 14 14 13 13
12 9 6 7 11 10 4 3 3 5 6 5 6 6 6 7 4 5 6 4 6 1 8 10 11 9 11 8 9 8 8 3 8 7 9 8 9 8 9 10 5 6 7 2 8 7 8 10 11 11 10 11 12 12 8 7 6 7 1 5 6 5 5 5 3 4 3 1 3 3 4 1 4 8 3 6 5 4 3 3 4 4 5 10 12 13 13 14
11 5 6 4 6 10 12 9 5 5 6 6 6 6 6 3 4 6 5 7 6 7 8 10 10 9 11 7 7 11 6 7 8 8 9 7 8 8 8 9 12 10 5 6 2 3 6 6 10 16 5 10 10 10 9 6 6 4 3 3 6 8 1 8 4 4 3 3 4 4 2 1 2 3 1 1 2 3 3 4 5 7 6 8 10 11 12 12
6 4 6 4 4 4 9 7 6 5 5 7 6 5 3 3 4 1 6 3 7 7 10 11 9 9 9 7 7 10 6 6 11 7 7 9 6 8 8 6 10 13 7 7 5 7 6 6 9 10 6 8 6 3 6 5 7 6 6 9 3 5 6 7 4 3 6 5 4 1 2 3 2 4 4 4 4 5 4 4 4 6 7 8 8 10 11 11
4 5 4 4 3 4 4 6 5 5 6 7 6 3 3 1 5 4 4 2 3 8 11 10 9 9 9 8 8 10 10 6 9 8 6 7 7 10 7 8 7 14 13 9 3 5 5 6 12 8 12 9 4 6 6 8 7 4 8 1 5 2 7 6 5 2 6 5 3 3 1 0 1 3 4 2 4 5 4 4 5 5 7 8 7 9 10 11
3 3 6 6 4 2 4 6 7 5 6 6 6 7 2 2 3 2 2 2 6 8 9 6 8 9 9 7 9 11 9 9 9 9 4 8 1 7 10 8 11 11 13 12 9 5 4 4 7 8 1 9 6 6 9 8 7 10 6 7 8 2 8 5 5 5 4 5 3 4 1 1 1 4 3 3 2 6 6 4 3 5 4 5 6 7 8 9
3 5 4 6 2 3 4 6 6 6 7 6 4 5 4 4 1 3 2 4 4 7 8 4 5 8 4 8 7 10 11 8 9 7 7 7 7 7 7 8 10 12 12 12 9 3 4 8 9 5 7 5 6 8 11 9 8 9 6 9 2 6 4 4 5 5 5 3 3 4 2 2 2 4 2 3 3 5 5 4 4 4 4 3 4 6 8 8
5 5 6 4 2 4 6 5 5 7 6 6 1 2 3 5 3 2 4 6 6 7 5 5 4 8 6 4 7 8 11 10 5 6 6 5 4 7 5 9 6 13 13 12 10 4 5 2 5 11 7 4 7 8 9 6 7 8 8 8 6 6 1 6 3 4 4 4 1 2 2 2 3 5 3 4 5 5 5 6 4 3 3 4 4 4 6 7
4 3 5 3 5 6 5 5 6 7 6 4 5 7 6 5 4 3 2 6 6 7 5 4 6 6 8 6 8 7 7 9 7 5 5 4 6 5 6 7 5 10 10 11 10 7 6 6 5 7 10 8 4 5 8 2 4 5 7 8 6 6 5 4 4 4 4 4 4 2 3 3 4 4 2 7 2 4 5 6 5 5 5 4 3 4 5 6
6 2 6 7 5 5 5 6 5 2 4 5 2 2 1 4 5 2 4 6 9 5 6 5 5 4 7 8 4 9 7 8 8 7 5 5 6 4 7 5 8 10 10 10 10 9 6 2 6 5 5 4 4 3 3 5 5 7 6 4 5 5 6 6 4 4 4 6 5 4 3 2 5 5 2 4 4 6 6 6 6 5 5 4 3 4 4 3
3 5 5 7 5 5 5 6 2 4 5 3 5 7 7 6 4 1 2 5 6 6 5 6 6 7 6 5 4 6 9 5 7 7 2 5 3 3 7 7 8 13 11 7 6 5 2 5 6 6 5 5 3 2 3 5 7 7 7 4 6 7 5 6 6 3 5 5 6 4 3 2 1 1 2 5 5 6 5 6 6 6 6 5 5 5 3 2
3 5 5 5 5 4 6 4 2 1 1 3 5 5 4 3 4 3 3 6 4 7 7 6 5 7 1 7 5 6 7 4 6 5 5 4 2 7 4 7 11 8 10 7 7 10 6 5 5 4 6 6 5 6 6 5 7 4 2 3 3 2 7 4 6 3 8 4 4 4 5 5 6 3 3 5 6 6 7 7 7 6 5 5 6 4 3 2
2 2 2 6 6 5 5 3 4 4 3 5 3 2 4 5 4 4 2 3 4 5 6 6 2 5 5 5 6 4 7 5 1 6 6 0 2 5 3 8 14 9 8 3 4 9 6 4 4 4 7 8 7 6 5 3 2 1 1 3 4 5 6 6 5 6 4 3 6 6 6 3 7 2 3 7 7 7 6 7 7 7 6 6 5 5 3 2
4 2 4 5 6 6 6 4 4 4 4 5 1 4 3 5 6 3 5 5 1 5 1 5 5 5 6 8 7 6 7 5 4 4 5 3 2 4 1 9 13 9 6 3 4 9 4 2 5 3 4 3 2 2 3 3 4 5 3 3 3 4 4 5 3 5 5 4 8 1 8 3 1 5 8 5 5 6 6 8 8 7 7 6 5 4 3 2
3 3 1 4 5 5 4 3 3 3 4 5 2 5 5 3 4 6 4 2 3 3 5 2 7 7 7 8 7 7 4 6 4 6 2 4 5 5 6 7 10 4 6 4 7 6 4 5 5 6 6 4 4 6 2 2 4 1 5 2 3 4 4 7 5 2 4 5 4 5 6 5 6 10 6 7 7 6 7 8 7 7 6 6 4 4 3 2
4 2 2 4 3 2 3 4 4 3 3 4 3 4 5 5 5 5 4 6 3 1 2 5 4 4 6 7 8 6 6 7 6 7 5 3 6 7 8 6 8 8 6 6 8 6 4 5 2 5 7 6 6 6 5 4 3 3 5 3 2 1 4 7 8 5 7 7 2 4 5 9 7 4 5 7 5 7 8 8 6 6 5 5 5 5 4 3
3 2 2 1 3 3 4 5 6 5 3 5 1 5 7 7 9 7 4 1 3 4 4 6 6 5 6 4 2 7 5 7 6 4 3 4 5 4 7 9 6 9 10 7 7 2 3 3 3 6 6 6 6 6 4 6 4 3 3 4 3 4 3 4 7 6 5 4 2 0 1 10 7 2 4 6 6 7 7 6 6 7 7 6 6 6 6 4
3 3 2 2 4 3 3 3 3 4 1 2 2 6 6 8 9 7 6 8 5 8 5 10 8 6 6 5 6 6 8 8 6 5 4 4 6 5 7 5 4 6 6 6 6 6 6 2 5 4 7 6 4 3 4 7 6 5 1 3 4 1 1 1 1 2 2 7 4 3 5 7 5 4 6 5 5 6 6 8 9 8 9 9 8 7 6 5
3 3 4 4 4 2 3 2 3 3 0 4 3 6 5 8 8 7 9 8 9 7 6 9 7 8 8 11 11 10 7 6 5 6 4 7 5 5 5 5 7 4 4 4 4 5 6 1 2 4 7 6 6 6 4 6 8 8 4 3 6 9 4 4 3 4 3 2 8 7 5 5 6 5 6 6 7 8 8 8 9 8 10 10 9 9 9 8
5 2 3 4 3 2 3 0 1 5 2 5 5 6 5 7 4 4 5 7 8 9 7 6 4 2 7 9 10 9 7 6 5 4 4 3 2 3 2 4 4 3 0 1 1 4 4 4 5 4 6 6 5 6 7 8 9 9 7 3 3 3 3 5 6 4 3 3 7 9 4 5 5 4 6 6 7 8 9 9 8 9 10 10 11 12 11 10
Wind_Direction
348 347 346 345 344 342 341 340 339 338 338 338 338 338 339 339 339 338 338 336 334 333 332 330 329 327 323 322 324 328 321 307 295 254 231 239 67 111 105 127 152 168 178 183 159 169 173 183 202 228 258 262 74 259 22 270 320 250 276 355 52 40 40 24 21 27 43 33 47 39 112 134 125 165 123 170 155 112 138 147 115 129 72 113 118 125 134 145
347 347 346 344 343 342 340 339 338 338 336 335 336 337 336 337 337 336 335 335 334 331 330 330 326 321 322 320 319 332 314 295 273 259 245 92 136 130 136 151 159 168 180 185 176 182 179 182 178 225 253 264 192 6 307 88 275 301 332 5 50 23 54 10 15 35 354 53 60 51 108 32 115 177 157 202 141 149 141 140 129 118 114 119 124 130 148 150
347 346 345 343 342 341 340 338 337 336 335 335 335 336 335 335 336 335 334 333 332 332 328 326 327 319 316 319 325 320 304 285 248 251 248 154 139 148 148 160 164 171 188 182 185 188 195 179 159 227 256 284 57 1 285 68 277 59 301 47 49 24 0 54 9 19 357 23 126 130 121 186 129 182 162 209 156 161 177 158 171 157 141 136 136 145 152 155
345 344 342 341 340 339 339 337 336 335 335 334 335 334 334 335 334 334 333 332 331 329 329 323 321 320 315 310 334 308 284 272 239 94 55 138 141 148 160 163 167 179 195 195 183 199 185 158 174 230 278 268 99 253 288 58 281 67 268 26 9 14 340 58 2 2 192 220 97 117 128 149 154 149 182 146 168 192 195 174 188 162 148 143 147 152 158 157
341 341 340 339 339 338 337 336 334 333 333 333 334 334 333 333 334 332 333 332 329 328 329 324 319 315 314 313 310 287 278 256 94 68 48 149 148 150 161 165 169 184 200 183 179 178 185 169 187 226 247 41 176 240 31 235 322 283 306 352 343 340 320 15 351 66 212 197 205 152 175 122 143 156 195 168 189 190 199 182 199 173 152 152 158 156 162 160
340 339 339 338 337 337 336 335 333 331 332 332 332 332 332 332 332 332 332 330 329 328 327 327 315 314 309 311 299 265 256 256 36 29 21 144 151 149 160 162 176 191 188 179 184 174 177 177 207 209 222 268 23 353 39 333 328 303 138 350 343 335 312 326 318 166 214 192 200 188 136 132 160 165 196 162 183 191 182 185 188 177 158 155 157 160 164 163
340 338 337 337 335 335 334 332 330 330 331 330 330 330 330 330 331 331 331 330 326 327 327 324 316 307 319 297 267 257 252 29 50 32 102 149 144 150 156 161 179 194 193 180 187 181 189 173 222 17 312 289 81 342 0 330 269 275 317 335 335 331 306 313 304 176 234 197 211 154 152 178 171 151 193 182 196 112 156 182 169 158 148 158 161 167 164 164
338 337 336 336 335 333 332 331 329 329 328 328 329 328 328 329 329 328 328 328 325 321 325 324 310 310 332 294 229 214 223 54 23 59 118 134 145 150 155 165 179 185 192 194 181 192 191 188 205 45 266 347 17 320 353 319 232 281 295 337 319 314 306 299 290 252 232 219 182 165 181 177 181 91 166 187 169 149 147 157 155 147 156 170 171 167 165 167
336 338 337 335 334 332 331 329 329 328 327 327 328 327 326 327 327 326 325 324 322 318 318 314 310 309 236 280 271 262 169 21 3 20 142 150 151 154 163 163 187 185 191 194 192 191 209 172 237 272 358 324 29 313 339 327 138 316 311 309 310 311 321 324 305 239 217 185 184 180 181 140 165 83 196 147 160 151 146 155 152 155 162 172 180 169 170 171
336 336 335 334 334 332 330 330 328 327 326 326 327 325 325 325 324 324 322 320 319 315 308 311 306 302 288 263 254 240 67 322 22 141 158 150 151 160 174 167 178 189 190 190 197 197 210 60 312 11 304 269 293 315 316 291 341 324 305 305 303 309 323 6 318 151 181 194 176 187 160 153 153 226 135 157 149 151 155 156 156 163 168 173 177 176 179 177
337 336 337 335 334 332 330 330 328 326 326 326 324 324 323 323 322 319 320 317 315 311 301 296 318 295 277 262 248 198 354 323 33 142 157 155 154 167 174 169 180 184 195 177 210 201 197 357 0 293 238 25 302 314 305 350 309 298 304 301 284 182 65 53 88 118 164 168 182 229 145 146 151 181 69 151 147 157 155 159 162 172 168 172 175 177 182 185
336 336 336 333 332 331 330 329 327 326 324 326 323 322 322 321 318 317 315 316 309 305 301 292 289 288 279 266 249 33 348 42 124 142 154 155 158 161 155 168 180 187 196 179 210 208 288 286 302 305 323 338 304 319 213 311 303 301 304 294 98 156 109 30 92 150 215 112 185 182 139 181 187 188 114 145 150 162 159 162 168 175 169 170 172 178 179 187
334 335 334 332 330 330 329 328 326 325 324 324 322 321 320 318 315 310 310 306 307 297 286 278 274 264 286 227 90 53 10 77 121 144 146 151 125 122 147 154 161 177 215 230 175 224 244 270 282 286 304 310 308 310 328 296 289 286 248 273 239 167 130 77 109 151 177 90 184 161 293 121 181 160 141 150 154 164 160 166 172 174 172 173 174 180 180 185
335 333 333 331 329 328 328 327 325 325 323 322 321 320 318 315 309 305 298 289 284 261 259 262 273 262 267 336 70 34 98 115 136 149 149 152 148 128 130 141 149 169 113 60 67 18 249 262 277 278 284 276 303 310 284 283 258 281 38 258 293 141 45 112 162 168 136 129 187 189 195 172 132 150 144 151 159 170 167 168 174 172 180 177 179 180 179 183
333 333 332 330 329 327 327 326 325 324 323 321 320 319 315 309 305 296 289 256 242 255 259 256 246 261 224 98 94 73 103 152 155 151 155 161 149 141 157 155 169 186 203 247 106 112 65 279 251 252 270 251 274 277 281 275 253 280 230 204 131 347 123 120 141 172 346 148 198 219 223 73 135 144 157 157 171 179 175 169 175 176 180 180 182 185 179 183
332 331 329 328 327 327 325 325 324 324 322 322 319 318 310 299 291 281 250 294 32 232 237 245 198 272 282 157 91 146 189 170 156 151 160 182 168 162 155 166 153 173 198 212 260 239 257 296 270 325 305 268 250 288 299 248 174 171 332 50 2 342 51 132 226 159 46 133 179 237 344 142 137 144 152 166 178 185 188 171 177 180 185 182 185 186 186 179
330 327 330 328 327 325 324 323 324 324 323 321 319 309 299 295 270 257 196 211 195 220 244 303 308 252 256 70 146 202 164 101 109 155 160 186 187 127 150 155 178 174 186 195 225 250 232 248 224 240 230 280 322 292 285 229 164 86 358 342 21 343 330 60 128 130 112 246 201 202 244 61 98 149 154 176 185 185 196 179 178 183 188 184 184 187 191 186
331 330 330 326 323 325 323 322 325 325 324 322 316 303 296 292 284 205 183 209 209 223 254 250 278 256 174 172 194 133 98 126 173 149 160 147 167 157 157 176 153 176 180 195 195 231 179 230 206 279 253 252 258 268 268 36 359 344 349 337 341 321 334 341 355 67 268 188 285 189 246 270 132 159 161 177 190 192 196 185 184 183 185 186 184 190 195 190
329 330 326 324 319 323 322 323 324 325 325 322 299 280 267 235 230 239 231 169 210 179 204 165 201 231 61 143 86 111 108 105 125 157 148 166 169 175 164 154 178 166 182 213 153 211 162 238 200 243 242 219 185 327 340 2 334 337 338 328 308 310 332 337 12 19 327 317 266 225 287 313 168 169 172 170 193 198 197 188 183 184 186 187 189 191 194 196
329 325 324 320 319 320 322 323 322 323 332 322 308 230 204 208 182 182 196 221 242 295 356 81 223 10 162 121 114 69 124 154 140 159 149 151 167 169 173 182 164 212 192 207 133 215 176 220 218 217 232 59 60 312 328 322 314 311 296 302 298 299 286 300 5 18 352 299 241 350 297 273 190 177 178 182 183 204 199 195 186 188 188 190 193 193 194 193
328 329 323 320 317 321 319 320 321 321 322 301 285 261 278 353 283 117 247 212 226 248 261 240 248 307 22 57 114 156 151 161 177 147 157 169 173 176 160 184 176 196 205 209 196 131 217 237 231 250 25 306 317 313 300 296 297 300 301 288 292 274 279 19 353 26 340 326 5 292 294 261 189 171 176 179 188 201 204 199 195 190 192 192 195 194 193 190
330 327 326 321 317 320 320 320 320 320 305 268 260 258 317 16 23 13 299 191 167 201 221 246 284 260 239 253 286 324 264 150 146 139 131 196 170 212 146 211 186 205 175 182 174 170 211 229 220 89 302 271 281 292 285 286 293 285 277 286 284 268 337 159 149 124 327 296 343 350 311 63 157 173 172 190 198 199 205 204 200 195 197 196 196 198 193 188
328 326 323 322 317 317 322 315 319 321 265 218 228 241 290 38 313 341 289 289 255 140 198 201 208 222 202 164 186 201 205 176 157 162 159 206 168 250 159 207 195 199 169 198 213 205 219 215 216 97 186 275 270 253 274 273 260 261 254 246 255 11 311 297 139 298 290 305 312 319 308 105 136 154 188 197 200 199 192 202 207 206 198 201 198 195 195 191
326 325 323 320 322 319 316 319 307 269 232 253 281 262 34 327 323 285 273 275 60 148 201 172 250 209 181 182 161 193 198 165 164 163 156 195 186 156 193 209 196 204 199 199 224 237 233 69 60 187 188 256 274 285 271 256 256 243 266 273 281 313 329 320 347 318 304 214 254 288 269 186 171 173 180 182 200 200 195 192 203 207 209 205 201 196 197 196
324 324 323 322 320 322 318 319 270 211 273 256 251 250 275 314 309 274 276 219 208 127 133 159 217 228 127 74 155 201 194 118 224 141 165 199 159 172 205 178 233 206 215 192 227 244 250 154 147 186 226 248 266 255 245 306 259 236 216 321 331 325 310 316 310 307 275 218 174 339 324 0 150 173 168 148 181 202 200 201 200 204 206 205 202 201 195 199
324 321 322 321 319 324 310 287 146 57 287 252 91 141 251 318 287 240 259 248 173 115 176 173 195 135 150 168 159 217 179 192 134 150 164 199 179 263 116 208 227 209 192 191 218 243 258 158 215 256 261 271 271 273 273 268 273 253 87 2 347 318 306 301 297 278 270 298 85 288 314 329 156 124 160 162 182 197 194 208 209 200 205 206 206 204 198 197
323 319 319 321 321 332 283 86 8 286 241 152 88 20 326 302 170 201 245 191 201 139 158 79 206 101 259 144 176 166 205 137 136 143 174 179 198 186 228 152 186 306 226 207 216 226 218 220 226 236 250 248 256 241 151 251 288 264 58 332 311 301 300 308 300 280 292 335 257 239 304 298 284 143 134 175 188 194 201 206 210 203 203 205 205 205 202 197
317 316 314 316 316 297 296 323 292 238 358 63 9 334 320 299 206 226 259 199 134 166 150 164 8 143 245 154 196 225 51 128 164 168 188 171 228 165 259 183 213 202 179 210 230 86 190 205 228 233 233 244 241 340 39 265 276 318 333 326 305 300 303 292 280 277 328 316 287 185 53 276 297 97 133 184 208 207 212 208 206 207 205 203 204 206 203 201
303 305 305 304 299 277 266 249 293 265 45 355 342 321 302 178 222 263 273 238 85 182 345 133 160 196 145 162 182 176 155 199 318 142 157 175 231 303 214 192 230 243 173 223 247 137 192 245 209 249 253 226 251 248 267 269 266 165 320 298 283 269 263 280 269 274 281 285 272 8 4 307 335 119 160 178 242 229 220 208 204 200 202 203 202 202 202 197
300 296 298 301 293 227 222 228 240 257 330 321 311 310 246 197 220 222 195 230 164 146 206 85 203 155 161 168 178 186 172 150 91 148 163 184 174 226 353 354 211 203 203 210 254 276 333 240 324 265 243 275 302 282 286 271 261 292 292 284 259 222 234 228 272 286 275 260 272 15 304 307 312 42 73 174 77 24 73 165 186 190 194 199 203 199 196 192
299 292 285 268 255 300 172 230 217 238 262 285 294 268 215 212 245 245 204 68 190 85 160 173 140 161 175 179 172 180 149 157 145 163 160 188 178 222 175 186 236 226 231 213 228 232 236 239 225 218 238 260 267 278 257 248 260 276 282 285 295 234 207 232 227 231 264 262 143 333 333 283 288 114 81 56 103 101 21 103 174 182 188 194 196 199 196 194
297 290 264 242 256 291 233 63 42 350 294 296 286 216 216 218 202 250 91 134 238 143 194 161 158 179 179 181 192 165 172 163 156 183 175 186 177 197 188 234 165 201 213 211 218 192 220 218 215 234 208 242 244 263 231 213 216 236 245 243 249 250 245 244 204 223 232 261 88 352 314 233 212 358 342 33 76 123 108 35 104 173 183 188 192 194 193 194
297 281 263 243 236 230 252 280 300 301 292 273 256 228 236 251 195 124 129 183 101 158 142 166 160 179 176 181 176 163 169 187 149 197 198 177 221 191 198 239 153 251 300 163 223 182 196 200 197 221 210 211 237 246 174 201 190 221 225 227 245 244 236 257 241 267 270 229 176 257 6 264 277 133 36 60 68 57 81 100 112 142 175 182 187 189 189 192
296 282 249 202 211 226 251 288 288 302 283 239 240 215 247 239 115 347 138 198 109 200 136 169 156 173 176 197 158 167 174 128 172 165 204 173 220 204 190 214 231 215 239 129 230 197 193 178 201 195 203 179 214 236 282 317 176 200 43 277 286 307 279 265 266 249 268 332 135 103 260 15 261 65 47 68 83 96 104 99 120 129 155 173 183 186 189 189
304 259 201 158 217 231 237 249 268 291 289 236 227 242 241 138 113 149 149 139 133 146 149 153 163 170 177 211 133 188 249 153 209 165 197 208 196 230 201 192 195 240 254 265 154 289 261 312 134 188 76 167 205 213 251 272 265 236 237 285 261 244 32 265 14 299 288 286 237 174 258 255 354 24 225 218 132 125 121 128 144 148 155 158 175 184 191 191
269 157 184 176 214 181 203 217 231 255 261 227 236 224 213 13 118 211 94 68 127 172 142 170 170 190 168 187 164 200 181 278 162 209 195 214 208 217 207 207 189 199 218 235 99 210 162 220 116 177 201 206 217 179 205 234 257 97 229 228 270 22 288 284 234 279 290 257 245 99 227 180 179 140 71 110 152 142 152 138 143 146 152 162 175 182 191 194
170 163 176 152 153 123 175 183 190 227 245 247 250 201 27 130 21 76 113 193 104 143 163 166 175 198 171 172 178 192 171 240 165 215 188 191 224 233 217 206 202 187 222 250 188 307 302 186 150 186 194 199 253 254 261 234 285 244 238 299 83 263 305 289 284 187 250 251 169 178 225 166 174 112 116 134 135 123 130 121 119 137 157 177 177 183 187 197
203 195 100 81 40 142 163 178 188 222 243 244 235 299 296 248 116 359 63 158 173 191 181 199 135 245 171 181 177 179 161 216 149 208 226 168 344 157 207 213 186 215 206 217 273 107 281 260 170 195 223 130 176 211 216 225 223 263 320 16 267 181 224 181 268 250 241 238 223 150 74 320 346 116 134 97 84 104 100 99 138 145 164 169 170 176 179 194
250 233 122 38 89 134 161 176 218 233 230 227 246 229 149 290 13 275 254 295 306 200 212 183 148 211 209 184 151 182 164 209 154 199 224 155 238 156 210 201 181 205 207 208 225 213 224 276 151 149 220 133 213 207 229 186 189 231 273 257 226 262 261 255 228 270 287 256 217 160 154 145 52 46 54 72 77 71 96 96 65 84 117 152 148 159 170 186
226 215 82 48 104 145 153 197 239 225 232 241 251 252 35 296 275 269 239 231 202 212 208 182 172 170 210 194 167 182 181 228 180 183 242 121 240 133 197 187 196 184 197 201 223 198 235 229 268 149 193 195 205 188 216 210 191 190 213 233 192 237 69 266 236 267 250 283 268 192 206 162 45 10 283 99 30 60 52 73 78 54 79 118 128 148 158 176
243 281 88 112 138 149 195 238 224 209 227 248 270 280 286 290 317 272 226 209 241 245 296 237 178 196 184 174 196 196 182 217 222 217 212 156 244 163 179 184 194 172 185 188 219 196 234 221 273 152 183 209 165 211 14 320 296 248 223 227 220 210 189 238 230 196 255 249 241 245 194 182 64 358 234 93 173 74 68 61 63 58 69 72 113 134 150 169
257 189 105 140 159 198 246 223 208 251 272 254 315 2 291 19 268 259 222 191 229 212 212 275 240 240 171 208 198 180 210 202 208 233 185 255 144 302 112 195 181 158 183 184 202 187 241 307 268 224 208 210 65 72 292 280 257 273 274 237 233 226 205 218 248 185 202 238 283 251 254 133 47 301 231 102 85 74 61 58 62 68 66 78 108 125 129 147
256 51 83 161 175 258 257 254 168 225 238 302 322 257 248 235 273 346 223 161 199 228 208 223 209 207 204 224 177 200 205 206 205 212 200 222 245 239 107 178 173 176 192 166 201 162 152 241 224 240 250 255 132 126 119 201 208 212 218 232 223 223 226 231 243 324 269 186 213 196 208 112 108 63 164 99 101 89 75 63 64 67 70 83 63 55 77 113
65 126 145 169 202 266 265 277 217 225 332 298 259 274 214 264 246 193 215 172 224 169 216 199 198 240 223 198 194 215 180 228 177 241 215 204 249 83 151 199 181 190 208 157 210 144 208 198 257 225 201 192 163 161 136 135 209 224 182 188 280 232 225 240 257 200 250 243 254 260 232 185 126 154 101 143 107 84 76 66 47 55 58 68 79 76 70 105
122 113 120 151 198 233 273 359 304 305 325 324 306 106 157 207 233 275 327 106 200 183 192 188 238 161 200 194 204 223 178 283 86 191 310 316 120 125 192 208 196 197 214 53 330 149 226 170 203 229 205 200 189 188 192 196 245 123 80 223 205 235 196 195 208 214 237 206 299 256 238 93 95 292 159 139 117 96 69 63 58 56 57 50 51 67 79 68
213 229 136 173 196 210 243 251 274 303 305 342 268 53 319 127 148 162 220 102 138 157 275 112 167 191 154 170 175 176 173 203 279 127 207 148 152 115 66 204 191 209 127 86 205 179 231 232 217 248 279 258 37 340 31 325 233 214 209 234 222 238 241 238 254 239 231 176 219 300 314 119 146 204 187 139 108 87 74 56 48 42 42 61 74 63 58 63
326 268 149 171 173 219 242 196 267 264 336 344 337 356 26 64 129 123 247 158 88 88 108 105 139 163 154 166 143 140 150 150 138 127 50 86 59 75 97 153 186 175 70 168 224 211 241 236 214 219 234 238 194 227 226 239 232 195 269 236 224 246 239 228 225 272 80 267 244 215 212 220 172 209 159 131 104 86 65 51 50 50 47 37 53 90 108 97
250 79 298 11 304 66 227 137 349 313 346 291 26 321 18 58 67 83 105 67 166 260 239 116 125 97 151 139 144 133 154 129 136 109 132 98 130 114 110 145 181 184 189 210 193 223 243 245 127 236 219 231 229 232 236 226 247 225 265 310 289 257 234 236 238 162 212 241 335 110 202 173 198 105 101 83 77 75 64 62 51 47 56 51 43 46 59 65
304 47 6 7 274 49 347 344 313 317 327 1 356 16 32 44 65 46 15 18 62 57 339 116 98 111 120 135 151 115 128 151 122 105 37 93 83 124 105 130 105 157 191 190 192 218 269 237 306 258 248 224 229 231 225 234 201 242 283 302 317 279 275 270 252 241 234 212 187 307 186 118 100 109 104 86 72 72 75 76 67 51 51 46 38 40 35 38
48 325 106 202 268 291 332 301 302 288 9 14 289 36 4 39 54 48 49 3 94 65 58 98 91 94 105 102 105 96 52 44 59 93 50 328 114 39 89 19 109 149 182 171 195 176 266 137 245 243 250 217 202 218 236 247 227 242 237 297 302 265 241 71 252 209 225 222 217 242 179 126 121 139 104 98 85 83 79 65 59 44 38 42 35 30 31 26
353 348 330 307 229 56 292 296 300 309 180 33 14 35 10 43 42 33 62 32 38 60 37 69 78 95 86 88 81 72 41 31 30 42 5 2 43 24 337 90 331 134 140 163 206 141 227 190 193 258 261 218 197 248 248 254 248 250 251 45 336 300 270 20 332 19 278 220 203 180 188 141 111 117 114 108 90 77 68 62 56 43 34 34 29 27 24 12
297 193 262 291 272 84 281 127 241 254 97 41 359 11 357 21 14 333 111 45 50 34 20 358 2 36 84 76 57 26 353 338 345 339 344 335 331 331 324 333 332 347 297 218 49 238 243 263 245 235 263 254 164 243 252 245 237 237 230 57 344 269 63 100 74 69 50 323 151 146 212 79 109 135 131 101 89 75 67 49 49 46 40 34 28 24 13 14